Location: Zagreb
(45.8000°N, 16.0000°E)
Time: 14:59:51
(UTC+01:00)

CAS-4B - Pass Details

Date: 31 October 2020
Orbit: 529 x 544 km, 43.0° (Epoch: 28 November)

Event Time Altitude Azimuth Distance (km) Brightness Sun altitude
Exits shadow 03:31:03 17° 105° (ESE) 1,393 ? -32.4°
Drops below altitude 10° 03:32:03 10° 102° (ESE) 1,776 ? -32.2°
Sets 03:34:18 0° 98° (E) 2,664 ? -31.8°
